Simultaneous Nadir Overpasses (SNOs) Predictions

Prediction of SNOs between NPP and TERRA Satellite Orbit:

Table of predicted SNOs for the next 14.0 days since TLE Epoch: 2/4/2013
Index Date (NPP) Time (NPP) Lat,Lon (NPP) SZA (NPP ) Date (TERRA) Time (TERRA) Lat,Lon (TERRA) SZA (TERRA ) Distance(km) Time Diff (sec)
1 02/06/2013 03:45:06 -68.24, -57.97 96.21 02/06/2013 03:46:14 -68.27, -57.97 96.19 3.49 68
2 02/06/2013 04:35:50 68.11, 109.50 83.65 02/06/2013 04:35:42 68.10, 109.48 83.64 1.26 8
3 02/06/2013 05:26:28 -67.81, -82.81 96.68 02/06/2013 05:25:15 -67.83, -83.21 96.64 17.10 73
4 02/08/2013 20:02:04 -68.21, 57.83 97.08 02/08/2013 20:02:43 -68.18, 57.81 97.12 2.82 39
5 02/08/2013 20:52:48 68.08,-134.70 82.78 02/08/2013 20:52:10 68.07,-134.68 82.77 1.75 38
6 02/11/2013 11:28:26 68.59, 5.77 82.46 02/11/2013 11:29:37 68.47, 6.41 82.31 29.63 71
7 02/11/2013 12:19:01 -68.13, 173.69 98.04 02/11/2013 12:19:11 -68.14, 173.65 98.03 2.38 10
8 02/11/2013 13:09:45 68.00, -18.84 81.83 02/11/2013 13:08:38 68.02, -18.84 81.85 2.22 67
9 02/14/2013 03:45:17 68.25, 121.98 81.21 02/14/2013 03:46:07 68.25, 122.03 81.19 2.20 50
10 02/14/2013 04:35:58 -68.10, -70.52 98.97 02/14/2013 04:35:38 -68.09, -70.53 98.98 1.48 20
11 02/14/2013 05:26:27 67.17, 97.92 80.06 02/14/2013 05:25:19 67.18, 96.09 80.14 79.00 68
12 02/16/2013 19:11:47 -69.20, 69.16 98.72 02/16/2013 19:12:54 -69.08, 71.30 98.92 86.04 67
13 02/16/2013 20:02:14 68.18,-122.17
